logo
Search for airport 
image banner adimage banner adimage banner ad
image banner ad

FACOVE - The Coves

Located in , South Africa

ICAO - , IATA -

Data provided by Airmate  

General information

Coordinates: S25°46'36" E27°47'35"
Elevation is 3884 feet MSL.
 
View others Airports in North-West

Operational data

Special qualification required
Current time UTC:
Current local time:
Weather at : FALA - Lanseria International ( 22 km )
METAR: FALA 180800Z 22004KT 160V260 9999 FEW030 19/11 Q1030 NOSIG
TAF: TAF FALA 180400Z 1806/1906 VRB03KT CAVOK TX23/1812Z TN12/1904Z
View NOTAMs / SUP AIP / TFR affecting this airport [VIEW]
Communications frequencies: [VIEW]

Runways:

RWY identifierQFULength (ft)Width (ft)SurfaceLDA (ft)
18167°295333ASPH
36180°295333ASPH

Airport contact information

Address: South Africa

Satellite view of FACOVE